Wind_Speed
99 95 86 91 95 87 91 85 89 77 85 100 102 106 107 112 115 116 116 115 113 107 104 100 98 92 90 86 83 79 85 82 81 79 80 79 77 75 73 71 71 71 73 72
102 90 98 103 108 105 103 96 84 82 86 94 95 101 104 117 115 112 113 117 113 111 111 108 103 99 92 90 85 83 85 84 84 85 84 82 80 78 78 76 76 77 76 80
96 83 97 103 104 105 106 104 99 95 100 102 101 96 98 110 121 116 112 115 112 111 113 111 107 104 100 94 90 88 87 87 86 85 83 81 81 80 83 82 82 81 82 82
80 80 87 91 97 100 99 101 100 106 107 109 110 110 98 105 115 115 114 113 108 106 111 112 111 108 104 99 96 96 92 91 92 90 89 87 88 87 86 83 84 85 86 85
65 68 75 80 85 91 97 101 103 106 107 112 116 119 109 107 106 111 113 111 107 107 110 113 113 111 108 102 101 101 101 98 96 94 91 90 91 91 88 87 89 87 89 90
56 66 67 69 79 81 88 95 100 103 106 117 119 124 117 105 103 103 107 111 113 108 108 108 111 115 112 107 103 107 105 102 101 100 96 94 97 94 92 95 93 93 93 94
57 56 57 62 70 70 71 76 94 102 109 114 119 120 121 106 97 99 100 108 112 109 109 106 107 99 100 115 109 109 110 107 105 104 102 100 101 96 97 99 98 98 99 99
39 41 53 61 65 66 70 76 80 78 86 94 109 116 115 93 94 103 110 110 109 109 109 110 109 105 105 100 111 109 107 106 107 107 106 107 107 105 102 100 100 97 93 96
37 42 46 51 55 56 61 59 69 76 82 87 91 105 101 97 99 110 110 106 108 108 107 109 112 109 104 101 101 101 95 103 105 101 101 104 105 103 104 103 100 99 97 97
34 40 43 46 49 50 50 56 59 66 70 75 78 81 83 91 99 106 109 110 107 106 109 108 109 111 112 109 106 95 93 98 97 94 93 92 94 95 96 96 95 95 97 97
30 36 35 37 40 43 39 47 54 57 59 64 71 75 76 86 98 104 108 107 109 101 108 106 106 108 111 112 110 102 95 100 97 98 96 96 96 98 97 97 99 101 99 99
28 31 34 40 46 42 38 42 43 46 47 54 57 56 63 80 90 96 103 108 104 104 98 102 107 107 105 101 101 108 108 106 107 108 107 106 105 104 105 106 107 108 108 103
20 24 30 35 37 36 32 31 24 49 51 52 56 57 44 19 47 74 91 100 102 97 98 99 98 101 103 103 103 102 101 101 100 99 98 99 100 101 102 102 101 97 94 95
19 23 24 30 33 33 35 36 36 41 45 49 49 48 52 49 44 36 54 71 92 96 91 91 93 96 97 98 98 99 99 99 99 96 95 95 95 94 92 90 90 88 86 86
24 25 26 26 25 25 26 27 33 42 41 43 48 41 11 54 68 62 65 68 68 83 89 88 91 92 88 88 90 90 93 93 90 87 87 85 85 83 84 86 85 82 84 82
23 22 20 19 20 20 18 18 22 30 37 45 49 53 53 41 47 54 55 62 62 70 73 81 88 89 80 72 76 72 68 75 77 76 75 73 72 72 73 76 75 74 77 78
34 32 28 26 19 15 19 21 24 26 30 43 45 38 42 46 42 32 38 42 50 46 44 53 53 56 58 57 54 59 63 65 66 64 65 63 66 68 67 67 69 71 72 72
42 37 33 39 35 20 9 17 23 24 24 26 30 34 34 34 36 39 41 42 40 36 33 41 52 48 53 58 64 66 65 62 62 62 63 64 64 61 61 63 65 66 66 67
41 34 38 34 28 4 6 13 9 14 22 27 30 37 35 31 36 32 31 34 43 69 79 72 58 59 64 66 66 67 65 64 61 59 58 59 58 59 59 60 60 61 63 60
43 40 34 36 43 31 13 22 26 8 13 29 35 39 30 34 31 33 32 30 39 56 60 73 80 70 65 68 65 62 60 59 60 57 53 53 53 53 54 54 54 53 52 46
52 48 47 45 41 24 20 21 22 14 8 15 29 39 39 36 34 42 41 37 36 40 48 52 52 53 53 54 54 53 49 45 42 41 43 45 45 46 46 46 44 40 43 47
50 46 44 39 27 18 21 25 27 27 32 14 21 26 29 29 25 30 35 34 34 38 37 40 38 38 38 37 32 32 31 32 33 34 38 35 32 33 36 38 41 45 49 53
35 35 37 31 31 23 30 30 29 29 28 25 14 17 26 25 17 18 23 26 25 26 26 29 32 34 34 31 28 30 31 38 37 31 33 35 37 39 44 46 52 55 57 54
29 29 31 26 20 23 30 29 27 37 36 21 24 16 24 21 18 20 26 33 30 33 34 33 30 28 30 34 35 40 33 33 33 33 38 45 44 44 45 47 48 47 54 54
27 22 24 19 15 18 27 27 28 42 33 27 19 16 23 25 24 29 36 38 34 35 30 36 37 38 38 40 42 42 46 45 41 40 40 43 43 44 44 45 46 57 59 49
27 28 25 15 13 17 23 37 40 43 27 37 25 24 26 24 35 31 43 41 34 30 30 34 39 40 37 37 41 40 41 44 42 45 46 48 47 49 54 52 58 57 57 49
Wind_Direction
283 282 286 274 269 263 263 258 233 234 230 234 233 232 232 235 236 236 237 237 237 238 239 238 238 237 240 241 245 246 251 252 256 257 259 260 261 264 265 266 268 270 272 276
279 275 274 266 263 261 261 258 249 243 240 237 234 231 231 233 233 235 236 237 237 237 238 239 239 239 240 244 242 245 248 251 254 256 258 261 263 265 266 268 270 272 274 276
271 267 261 256 252 252 253 253 249 244 249 241 236 232 226 232 232 233 235 235 235 237 239 239 238 240 239 243 245 244 245 249 251 253 255 259 262 263 265 269 272 274 274 277
262 259 255 252 251 247 242 243 241 243 239 236 232 232 229 227 231 232 233 236 234 237 240 241 241 240 240 240 246 247 245 246 249 252 255 258 261 264 267 270 271 273 275 276
263 256 253 250 247 241 239 235 234 234 232 231 232 232 225 227 227 228 231 233 234 235 239 240 242 242 240 240 242 249 249 249 251 253 255 257 260 264 268 269 270 273 277 280
259 252 247 246 245 242 240 234 233 230 230 228 226 231 227 228 225 227 229 231 231 231 235 238 243 243 243 242 242 248 250 252 254 257 258 260 262 265 269 270 274 276 278 280
251 248 246 241 242 241 237 233 234 231 228 228 225 228 228 224 229 227 229 230 230 228 232 236 238 236 245 245 243 246 249 251 254 257 259 261 264 267 270 272 274 276 278 280
255 247 239 239 235 232 230 229 237 236 236 233 228 227 229 224 226 229 229 229 229 227 228 231 234 237 238 242 248 247 250 252 254 255 258 260 263 265 267 269 271 274 273 273
246 239 240 238 239 234 233 230 232 232 229 227 230 227 226 220 222 226 230 230 231 228 229 230 231 233 236 237 241 248 248 254 256 258 258 260 262 264 266 269 270 271 273 274
238 232 232 230 234 231 224 225 231 232 229 230 227 227 223 221 222 226 227 230 230 231 230 230 233 233 232 234 235 238 240 243 245 248 251 255 257 260 262 263 265 267 268 268
233 229 225 226 231 231 224 221 223 228 227 228 227 228 221 222 224 224 225 227 230 230 232 233 233 236 236 235 235 236 236 239 244 248 250 253 255 258 260 262 263 265 268 272
231 226 219 220 221 219 216 225 224 227 215 220 225 221 230 222 229 229 228 227 229 231 234 234 235 236 237 239 238 238 241 245 247 247 251 255 258 260 262 264 266 271 273 275
222 219 216 219 225 227 212 215 214 225 211 210 214 213 199 240 236 240 233 229 228 229 233 235 238 240 239 239 239 241 242 244 246 248 250 253 256 259 263 265 268 271 274 276
194 190 194 207 214 212 204 206 208 222 209 210 213 212 218 202 192 192 229 234 235 232 234 236 238 240 243 244 245 245 246 248 249 250 252 255 257 260 264 266 269 272 275 278
177 174 186 190 200 206 211 211 201 207 206 205 209 201 252 241 224 224 230 226 230 233 235 236 239 242 245 248 250 251 252 254 254 255 256 258 261 263 265 268 271 274 277 280
162 164 167 174 187 184 187 191 194 195 190 204 205 191 197 215 219 220 225 230 232 230 231 234 238 243 247 247 249 249 246 249 252 254 257 260 262 264 266 268 273 275 276 281
125 120 120 109 94 133 141 144 155 164 185 200 205 203 213 217 224 216 222 220 224 228 243 235 233 236 239 232 227 234 242 247 253 258 259 261 261 264 269 270 270 274 278 282
108 100 94 74 52 43 49 136 143 153 170 191 190 199 209 212 215 222 227 223 209 178 162 224 207 213 224 225 230 234 240 243 248 252 257 260 265 267 268 270 271 275 281 283
116 116 108 93 65 76 78 117 115 146 165 166 175 180 187 191 206 197 204 206 203 194 204 212 216 223 228 228 231 234 238 245 251 254 259 262 263 263 265 269 274 277 276 279
135 139 131 142 143 189 182 148 163 125 179 151 174 180 196 207 224 208 200 206 203 198 206 211 221 230 232 234 234 237 242 246 250 252 253 254 259 263 267 269 269 273 282 287
149 147 154 158 167 172 166 161 154 150 130 183 182 186 203 212 216 216 220 223 215 213 206 208 214 220 224 228 230 233 236 238 240 245 251 253 256 252 254 265 272 276 276 283
157 161 165 164 145 156 147 135 131 133 141 187 170 198 201 209 214 214 218 219 211 209 205 202 205 209 213 216 222 227 231 231 228 228 237 240 253 262 269 266 269 273 276 283
171 171 176 179 172 165 157 145 130 129 136 159 164 204 212 206 197 228 217 197 186 186 185 195 205 212 221 218 207 197 210 212 223 232 241 246 254 252 252 258 268 278 282 288
143 153 160 160 152 153 158 156 148 150 144 125 171 213 220 226 227 225 182 153 160 171 182 193 196 204 208 201 202 204 208 216 222 240 240 243 251 258 263 269 277 277 287 301
136 144 145 138 117 153 155 161 160 159 165 153 154 209 217 227 204 181 168 162 178 173 186 194 189 204 208 202 210 213 209 215 233 236 243 247 258 260 265 267 281 284 289 309
158 141 135 129 135 136 151 155 156 152 167 181 184 207 203 191 169 177 177 175 181 189 201 201 209 201 211 216 220 222 222 221 232 238 244 247 251 257 265 274 277 281 294 305
Height
10616 10618 10639 10635 10627 10641 10641 10650 10664 10680 10681 10665 10677 10708 10716 10720 10728 10742 10756 10767 10785 10802 10810 10812 10820 10832 10835 10846 10860 10871 10863 10865 10863 10867 10867 10871 10875 10879 10884 10888 10891 10893 10891 10892
10578 10596 10605 10591 10589 10604 10608 10617 10634 10649 10654 10649 10658 10679 10694 10688 10703 10721 10734 10744 10767 10780 10782 10796 10806 10819 10830 10832 10844 10849 10850 10852 10852 10852 10852 10857 10862 10867 10869 10873 10876 10879 10883 10878
10537 10563 10549 10548 10553 10563 10575 10583 10603 10614 10621 10618 10626 10644 10662 10667 10683 10699 10710 10724 10746 10759 10765 10776 10791 10803 10813 10820 10828 10834 10837 10838 10840 10839 10843 10847 10850 10851 10853 10860 10861 10864 10867 10867
10502 10511 10506 10509 10511 10526 10539 10550 10567 10572 10580 10586 10599 10610 10635 10642 10658 10681 10696 10704 10734 10744 10751 10759 10771 10784 10796 10811 10811 10812 10823 10824 10823 10829 10833 10837 10836 10836 10839 10849 10847 10848 10851 10853
10471 10474 10473 10474 10481 10488 10496 10509 10520 10534 10546 10557 10566 10572 10609 10616 10638 10656 10673 10689 10712 10726 10732 10740 10750 10760 10776 10795 10799 10791 10798 10810 10812 10816 10821 10826 10822 10824 10830 10836 10832 10840 10837 10836
10442 10435 10442 10451 10449 10461 10469 10478 10490 10505 10515 10519 10546 10549 10580 10603 10622 10641 10656 10667 10680 10703 10711 10720 10728 10738 10754 10774 10784 10776 10782 10791 10797 10799 10807 10814 10805 10815 10823 10815 10823 10824 10824 10822
10405 10410 10417 10423 10425 10438 10452 10464 10461 10468 10481 10500 10523 10533 10561 10593 10607 10625 10638 10643 10656 10680 10692 10702 10713 10725 10733 10747 10765 10762 10765 10778 10782 10786 10792 10797 10790 10806 10805 10804 10806 10808 10809 10809
10389 10395 10389 10393 10401 10415 10424 10434 10445 10462 10475 10495 10510 10516 10542 10588 10595 10597 10600 10614 10639 10658 10673 10683 10694 10706 10715 10727 10737 10751 10754 10758 10764 10774 10780 10781 10784 10789 10794 10793 10791 10795 10795 10791
10369 10370 10375 10381 10389 10402 10414 10427 10438 10439 10449 10463 10482 10502 10531 10551 10561 10568 10583 10604 10618 10639 10656 10668 10674 10686 10698 10711 10722 10736 10738 10741 10753 10751 10761 10764 10768 10775 10777 10777 10779 10778 10779 10776
10353 10355 10362 10369 10376 10385 10398 10406 10418 10423 10438 10453 10473 10488 10520 10534 10542 10552 10570 10583 10601 10621 10636 10645 10655 10666 10680 10687 10705 10726 10730 10729 10732 10742 10747 10751 10753 10757 10758 10760 10762 10762 10758 10757
10342 10345 10355 10362 10370 10376 10390 10395 10406 10415 10434 10448 10461 10478 10503 10521 10521 10533 10547 10568 10579 10603 10611 10636 10643 10647 10656 10673 10694 10712 10715 10707 10719 10723 10734 10738 10742 10742 10743 10745 10746 10743 10742 10737
10334 10340 10347 10353 10357 10367 10378 10390 10401 10413 10429 10438 10454 10480 10490 10499 10509 10528 10541 10555 10579 10590 10606 10613 10615 10631 10645 10662 10677 10671 10682 10694 10702 10712 10719 10725 10727 10729 10729 10727 10726 10726 10723 10719
10330 10335 10342 10348 10356 10366 10377 10386 10406 10404 10413 10431 10444 10462 10484 10500 10504 10527 10539 10545 10561 10575 10580 10595 10606 10612 10623 10639 10651 10662 10672 10680 10689 10697 10704 10709 10710 10710 10711 10711 10709 10705 10704 10704
10323 10329 10337 10344 10350 10359 10370 10380 10395 10405 10417 10424 10444 10464 10482 10486 10496 10508 10515 10531 10548 10562 10569 10582 10592 10598 10610 10626 10637 10645 10655 10664 10673 10681 10686 10690 10690 10693 10694 10693 10690 10689 10690 10687
10320 10327 10335 10343 10350 10359 10367 10378 10391 10400 10413 10425 10437 10459 10478 10478 10490 10502 10510 10522 10531 10544 10557 10569 10578 10591 10606 10613 10623 10633 10641 10650 10655 10660 10666 10670 10674 10676 10676 10676 10676 10675 10673 10668
10320 10329 10339 10349 10354 10361 10368 10377 10387 10397 10408 10421 10430 10450 10457 10465 10476 10488 10495 10509 10523 10536 10545 10555 10570 10581 10591 10599 10607 10616 10622 10627 10635 10642 10649 10656 10658 10657 10659 10659 10661 10659 10655 10655
10325 10335 10345 10355 10362 10368 10374 10380 10386 10394 10402 10415 10425 10441 10455 10464 10472 10481 10493 10505 10519 10534 10547 10550 10560 10567 10576 10583 10590 10596 10604 10613 10621 10628 10634 10639 10638 10641 10644 10645 10642 10643 10642 10641
10330 10339 10348 10357 10365 10370 10379 10385 10388 10396 10403 10416 10429 10436 10445 10452 10463 10474 10484 10499 10515 10538 10530 10536 10541 10549 10561 10566 10573 10581 10592 10602 10609 10614 10618 10622 10625 10627 10628 10628 10629 10631 10630 10628
10337 10346 10358 10365 10375 10377 10386 10390 10397 10402 10407 10416 10426 10433 10439 10448 10456 10465 10472 10490 10505 10522 10521 10527 10530 10537 10548 10555 10564 10571 10581 10590 10597 10601 10605 10607 10611 10612 10613 10615 10618 10618 10618 10616
10345 10354 10364 10372 10382 10383 10390 10392 10401 10405 10412 10423 10430 10434 10437 10442 10451 10460 10470 10478 10492 10503 10512 10519 10524 10531 10539 10549 10555 10563 10570 10576 10582 10587 10592 10594 10597 10600 10602 10605 10606 10604 10604 10604
10347 10356 10366 10373 10382 10388 10392 10395 10401 10410 10417 10424 10429 10430 10433 10440 10450 10454 10462 10470 10479 10487 10497 10506 10515 10522 10529 10537 10544 10552 10560 10565 10569 10575 10578 10582 10587 10589 10592 10595 10595 10595 10594 10594
10354 10360 10369 10376 10380 10385 10392 10397 10402 10408 10415 10425 10427 10430 10435 10437 10444 10450 10454 10461 10468 10478 10488 10497 10506 10514 10521 10530 10538 10544 10550 10556 10560 10565 10569 10574 10577 10579 10582 10584 10586 10586 10586 10586
10362 10367 10372 10377 10381 10386 10392 10396 10401 10406 10413 10423 10428 10434 10434 10436 10445 10449 10451 10455 10463 10471 10481 10491 10500 10508 10516 10523 10531 10538 10543 10549 10554 10557 10561 10566 10569 10572 10575 10575 10575 10577 10576 10575
10365 10370 10374 10380 10384 10390 10393 10397 10401 10408 10414 10418 10424 10428 10429 10437 10444 10447 10451 10457 10465 10473 10483 10491 10499 10506 10512 10517 10524 10529 10537 10542 10548 10551 10555 10557 10561 10563 10566 10567 10566 10566 10564 10564
10370 10374 10377 10382 10387 10391 10394 10398 10404 10410 10417 10420 10423 10423 10430 10434 10441 10446 10452 10459 10468 10475 10483 10489 10496 10501 10507 10512 10518 10525 10530 10535 10538 10543 10547 10550 10553 10556 10555 10556 10557 10556 10554 10556
10372 10376 10381 10386 10389 10392 10395 10400 10407 10409 10415 10419 10421 10422 10429 10434 10441 10449 10453 10460 10467 10475 10481 10488 10492 10498 10503 10508 10513 10520 10524 10528 10532 10536 10540 10541 10544 10545 10546 10547 10547 10546 10547 10546